Temp
62 63 63 63 63 64 64 64 65 65 65 65 66 66 67 68 70 70 71 64 66 69 71 72 73 74 74 75 75 75 74 73 73 73 73 73 73 73 73 73 73 74 74
61 61 61 62 62 63 64 64 64 64 65 65 65 67 66 66 67 69 69 70 64 66 68 70 72 73 73 74 74 74 74 74 73 73 72 73 73 73 73 73 73 73 74
60 59 60 60 61 62 62 63 64 64 64 65 64 66 67 68 66 68 68 68 68 64 65 68 69 70 70 71 72 72 73 73 73 73 72 72 72 72 72 72 72 72 73
60 59 59 59 60 61 61 61 62 62 63 64 63 65 65 65 66 66 66 67 67 68 65 64 65 66 67 68 69 71 71 72 72 72 72 72 71 71 71 71 71 70 72
59 59 59 59 60 60 60 59 60 60 61 62 63 64 64 63 64 65 66 65 65 66 65 63 61 61 62 65 67 68 69 69 69 70 70 71 71 71 71 72 71 71 71
58 58 58 59 59 58 59 59 58 61 60 60 61 62 62 62 63 64 63 65 65 65 64 64 63 63 60 61 63 64 65 66 67 68 69 70 71 71 71 72 71 71 71
58 57 58 58 58 58 58 57 56 58 59 61 59 61 61 61 62 63 63 64 64 64 63 63 62 62 61 60 61 62 62 64 66 66 68 70 69 70 71 72 72 71 72
57 58 57 57 58 58 57 56 55 55 58 58 54 54 55 61 63 63 63 62 64 62 62 62 63 60 59 59 57 58 59 63 67 70 70 69 70 70 71 72 72 72 71
56 56 56 57 57 58 57 56 55 55 54 58 57 53 52 51 56 61 61 63 62 62 61 61 60 58 58 57 56 56 58 60 66 69 70 70 70 71 71 72 72 72 72
56 55 55 56 56 56 56 57 57 55 54 53 57 57 55 53 51 52 60 61 61 61 59 58 57 57 57 56 55 54 57 60 65 68 68 69 70 71 72 72 71 72 71
55 55 55 55 55 55 56 56 56 55 55 54 54 54 54 54 54 52 51 57 60 61 61 57 55 55 54 54 55 54 56 59 63 65 67 67 66 67 69 71 71 70 68
55 55 54 54 54 54 55 56 56 55 55 55 55 54 53 53 54 52 52 54 54 58 57 54 53 53 52 52 52 52 54 57 60 62 64 64 64 65 67 68 67 66 66
54 54 53 53 54 54 54 55 56 55 55 54 55 55 55 55 56 54 53 53 52 57 56 56 52 52 52 51 51 51 51 55 57 59 61 61 60 61 61 63 64 63 63
53 54 53 53 53 53 53 55 55 55 54 53 54 54 54 55 55 53 52 50 48 52 56 58 54 54 52 51 50 50 52 53 55 56 57 57 57 57 58 60 61 61 61
52 53 53 53 53 53 53 53 53 53 54 54 54 53 53 54 53 53 52 51 48 46 49 55 55 54 53 51 51 50 51 50 54 54 54 54 54 55 56 57 57 57 57
52 52 52 52 52 52 52 52 52 53 52 53 53 52 52 52 52 51 51 51 50 48 46 55 55 53 53 52 51 51 50 48 51 53 52 52 52 53 53 54 54 55 55
51 51 51 51 51 51 51 51 51 51 50 51 51 50 50 50 49 49 49 49 48 48 45 51 51 52 51 50 50 49 49 49 50 51 51 51 51 51 51 51 52 52 52
51 50 50 50 50 50 51 50 49 50 49 49 49 49 49 49 48 48 47 47 47 47 46 45 48 49 48 48 47 47 48 48 47 48 49 50 50 51 50 50 50 50 50
51 51 49 49 49 49 49 49 49 49 49 49 49 48 48 48 47 47 46 45 45 45 45 44 44 47 47 46 47 47 47 47 46 44 45 47 50 50 49 49 48 48 48
49 50 50 49 48 49 48 49 49 48 48 48 48 47 47 47 46 46 45 45 44 43 43 43 44 44 44 45 43 42 44 43 44 44 42 43 45 46 46 45 45 46 47
49 49 48 48 48 47 48 48 48 48 48 48 47 46 46 45 44 45 44 44 42 41 41 40 39 40 41 41 41 42 41 42 42 41 42 44 43 43 43 42 42 44 47
48 48 48 47 46 47 47 48 48 46 46 46 46 46 45 43 44 45 46 45 43 41 40 39 40 39 41 40 40 40 39 39 41 38 40 42 42 42 42 42 42 46 46
46 45 46 45 45 46 46 48 48 48 45 46 45 45 44 44 44 44 45 47 47 45 44 42 40 40 39 41 40 38 38 39 40 38 37 38 38 39 41 41 41 46 45
43 44 44 44 44 45 45 47 47 48 47 46 45 46 46 46 44 43 42 42 43 43 44 44 41 42 42 42 40 41 40 39 38 38 37 36 37 37 39 40 39 44 42
43 43 43 43 43 44 44 45 46 46 45 45 44 45 44 44 44 45 40 40 41 41 42 43 42 41 42 42 40 39 36 36 37 38 36 37 36 36 36 38 40 42 40
41 42 42 43 42 43 43 44 46 45 43 43 44 43 43 44 44 45 44 41 39 42 40 40 41 42 42 42 41 39 38 34 36 35 36 34 33 33 33 34 35 38 38
MSLP
1020.10 1019.97 1019.79 1019.59 1019.35 1019.13 1018.77 1018.39 1018.07 1017.69 1017.37 1017.05 1016.82 1016.58 1016.28 1016.01 1015.74 1015.55 1015.38 1015.40 1015.45 1015.35 1015.17 1015.00 1014.85 1014.69 1014.53 1014.33 1014.06 1013.81 1013.60 1013.61 1013.67 1013.66 1013.66 1013.68 1013.77 1013.89 1013.96 1014.09 1014.22 1014.27 1014.34
1020.30 1020.09 1019.85 1019.65 1019.36 1019.18 1018.81 1018.41 1018.01 1017.63 1017.22 1016.86 1016.50 1016.19 1016.03 1015.84 1015.63 1015.47 1015.35 1015.18 1015.27 1015.20 1015.10 1014.91 1014.69 1014.51 1014.30 1014.06 1013.81 1013.53 1013.29 1013.03 1012.92 1012.93 1012.97 1012.96 1012.93 1012.99 1013.14 1013.29 1013.33 1013.40 1013.54
1020.32 1020.18 1019.91 1019.67 1019.46 1019.17 1018.72 1018.26 1017.79 1017.37 1017.03 1016.55 1016.29 1015.98 1015.74 1015.43 1015.37 1015.33 1015.29 1015.18 1015.01 1014.98 1014.96 1014.80 1014.58 1014.41 1014.24 1013.97 1013.68 1013.36 1013.05 1012.77 1012.51 1012.36 1012.32 1012.23 1012.19 1012.12 1012.12 1012.18 1012.37 1012.49 1012.55
1020.60 1020.33 1020.07 1019.78 1019.51 1019.16 1018.77 1018.31 1017.91 1017.33 1016.81 1016.44 1016.13 1015.79 1015.57 1015.40 1015.27 1015.27 1015.22 1015.11 1015.04 1014.93 1014.93 1014.90 1014.68 1014.47 1014.25 1013.92 1013.55 1013.14 1012.77 1012.49 1012.20 1011.95 1011.75 1011.52 1011.42 1011.34 1011.36 1011.39 1011.31 1010.99 1011.37
1020.61 1020.43 1020.17 1019.93 1019.59 1019.18 1018.78 1018.52 1018.00 1017.71 1016.98 1016.45 1016.11 1015.64 1015.43 1015.29 1015.24 1015.13 1015.02 1015.06 1015.13 1015.07 1014.98 1014.85 1014.69 1014.51 1014.28 1013.89 1013.48 1013.09 1012.70 1012.36 1012.07 1011.69 1011.36 1011.01 1010.71 1010.51 1010.39 1010.29 1010.38 1010.54 1010.80
1020.60 1020.43 1020.17 1019.90 1019.64 1019.25 1018.89 1018.68 1018.30 1017.73 1017.35 1016.84 1016.25 1015.60 1015.40 1015.29 1015.25 1015.22 1015.23 1015.14 1015.06 1015.09 1014.97 1014.75 1014.56 1014.43 1014.38 1014.13 1013.78 1013.41 1012.99 1012.54 1012.02 1011.52 1011.01 1010.47 1009.99 1009.65 1009.48 1009.36 1009.38 1009.55 1009.79
1020.51 1020.34 1020.17 1019.90 1019.59 1019.28 1019.00 1018.82 1018.42 1017.82 1017.33 1017.06 1016.34 1015.64 1015.39 1015.43 1015.35 1015.31 1015.26 1015.15 1015.05 1015.09 1014.97 1014.79 1014.64 1014.50 1014.35 1014.22 1013.96 1013.58 1013.18 1012.48 1011.79 1011.21 1010.43 1009.51 1009.13 1008.76 1008.45 1008.43 1008.54 1008.79 1008.97
1020.36 1020.14 1020.09 1019.93 1019.47 1019.20 1018.98 1018.91 1018.54 1018.06 1017.63 1017.39 1017.13 1016.63 1015.79 1015.40 1015.19 1015.39 1015.38 1015.20 1015.07 1015.07 1014.98 1014.88 1014.66 1014.62 1014.45 1014.24 1014.18 1013.85 1013.36 1012.59 1011.38 1010.29 1008.96 1008.12 1007.96 1007.84 1007.58 1007.50 1007.53 1007.76 1008.05
1020.17 1019.95 1019.92 1019.77 1019.53 1019.25 1019.01 1018.87 1018.60 1018.26 1017.91 1017.38 1017.29 1017.25 1016.65 1016.21 1015.76 1015.39 1015.29 1015.15 1015.06 1015.02 1015.11 1015.01 1014.86 1014.79 1014.66 1014.53 1014.37 1014.11 1013.53 1012.59 1011.12 1009.77 1008.42 1007.12 1006.80 1006.61 1006.66 1006.68 1006.63 1006.78 1007.13
1019.90 1019.69 1019.61 1019.54 1019.47 1019.25 1019.12 1018.79 1018.50 1018.35 1018.14 1017.61 1017.31 1017.21 1017.25 1017.18 1016.53 1015.77 1015.40 1015.13 1015.08 1014.91 1015.09 1015.11 1015.09 1014.96 1014.85 1014.74 1014.62 1014.36 1013.56 1012.51 1011.13 1009.86 1008.94 1007.44 1006.08 1005.70 1005.92 1005.97 1006.22 1006.34 1006.77
1019.59 1019.43 1019.28 1019.24 1019.15 1019.08 1018.86 1018.66 1018.41 1018.23 1018.01 1017.79 1017.57 1017.37 1017.22 1017.02 1016.80 1016.54 1015.38 1014.97 1014.97 1014.90 1015.02 1015.17 1015.12 1015.05 1015.06 1014.98 1014.67 1014.34 1013.64 1012.75 1011.66 1010.55 1009.41 1008.26 1007.60 1007.05 1006.19 1005.47 1005.51 1005.71 1006.58
1019.05 1018.97 1018.95 1018.82 1018.88 1018.83 1018.65 1018.42 1018.15 1018.02 1017.80 1017.61 1017.40 1017.25 1017.19 1017.01 1016.58 1016.37 1015.88 1015.25 1014.83 1014.60 1014.77 1015.05 1015.04 1015.11 1015.12 1014.98 1014.79 1014.48 1013.91 1013.16 1012.40 1011.32 1010.25 1009.55 1008.79 1007.27 1006.31 1006.23 1006.44 1006.55 1007.23
1018.46 1018.33 1018.45 1018.39 1018.42 1018.32 1018.39 1018.09 1017.86 1017.78 1017.66 1017.40 1017.11 1016.97 1016.84 1016.82 1016.79 1016.49 1016.13 1015.58 1015.18 1014.77 1014.46 1014.55 1014.75 1014.85 1014.79 1014.72 1014.66 1014.43 1014.18 1013.48 1012.91 1012.11 1011.33 1010.63 1010.03 1009.19 1008.59 1008.16 1007.77 1007.93 1008.63
1018.09 1017.89 1017.89 1017.88 1017.94 1017.87 1017.91 1017.78 1017.58 1017.47 1017.42 1017.24 1016.99 1016.86 1016.84 1016.76 1016.85 1016.75 1016.41 1016.09 1015.44 1014.92 1014.39 1013.88 1014.61 1014.65 1014.77 1014.57 1014.48 1014.39 1014.26 1013.90 1013.29 1012.65 1012.07 1011.63 1011.34 1010.95 1010.38 1009.67 1009.43 1009.66 1009.90
1017.57 1017.40 1017.35 1017.31 1017.33 1017.38 1017.35 1017.38 1017.27 1017.13 1017.06 1016.96 1016.81 1016.76 1016.76 1016.65 1016.70 1016.70 1016.64 1016.47 1016.13 1015.24 1014.41 1014.05 1014.19 1014.45 1014.53 1014.64 1014.52 1014.43 1014.31 1014.21 1013.58 1013.20 1012.59 1012.21 1011.99 1011.64 1011.36 1010.99 1010.92 1010.88 1010.94
1017.15 1016.99 1016.93 1016.93 1016.95 1016.98 1016.94 1016.98 1016.85 1016.77 1016.82 1016.66 1016.60 1016.53 1016.40 1016.33 1016.36 1016.44 1016.44 1016.33 1016.16 1015.82 1014.91 1014.24 1014.21 1014.38 1014.40 1014.43 1014.47 1014.42 1014.38 1014.36 1013.91 1013.51 1013.29 1012.83 1012.49 1012.35 1012.15 1011.99 1011.95 1011.76 1011.67
1016.64 1016.47 1016.38 1016.33 1016.29 1016.33 1016.29 1016.35 1016.40 1016.52 1016.57 1016.41 1016.28 1016.16 1015.99 1016.03 1015.96 1015.99 1016.05 1016.02 1015.90 1015.89 1015.29 1014.54 1014.66 1014.65 1014.52 1014.54 1014.51 1014.56 1014.46 1014.22 1014.07 1013.86 1013.53 1013.45 1013.29 1012.95 1012.87 1012.93 1012.94 1012.97 1012.86
1016.12 1016.06 1015.99 1015.86 1015.67 1015.59 1015.64 1015.68 1015.78 1015.92 1015.95 1015.91 1015.91 1015.97 1015.75 1015.75 1015.64 1015.67 1015.72 1015.58 1015.52 1015.53 1015.52 1015.03 1014.86 1014.58 1014.44 1014.43 1014.50 1014.45 1014.47 1014.50 1014.45 1014.34 1014.06 1013.61 1013.46 1013.37 1013.17 1013.12 1013.14 1013.14 1013.09
1015.75 1015.54 1015.46 1015.25 1015.02 1014.90 1014.90 1014.91 1015.04 1015.21 1015.29 1015.25 1015.23 1015.26 1015.17 1015.32 1015.25 1015.28 1015.38 1015.38 1015.41 1015.41 1015.35 1015.19 1014.84 1014.57 1014.30 1014.29 1014.11 1014.15 1014.25 1014.25 1014.33 1014.35 1014.17 1014.05 1013.69 1013.68 1013.76 1013.60 1013.40 1013.33 1013.32
1015.47 1015.14 1014.85 1014.63 1014.44 1014.27 1014.27 1014.28 1014.29 1014.35 1014.41 1014.44 1014.52 1014.59 1014.61 1014.68 1014.66 1014.77 1014.96 1015.01 1015.13 1015.21 1015.21 1015.08 1014.76 1014.47 1014.28 1014.07 1014.20 1014.04 1013.88 1014.09 1014.08 1014.20 1014.27 1014.24 1014.22 1014.08 1014.03 1014.11 1014.10 1013.98 1013.72
1015.09 1014.77 1014.46 1014.11 1013.87 1013.78 1013.68 1013.62 1013.63 1013.60 1013.59 1013.54 1013.66 1013.76 1013.86 1013.93 1014.09 1014.30 1014.50 1014.51 1014.78 1014.85 1014.84 1014.81 1014.75 1014.57 1014.26 1014.20 1014.12 1014.02 1013.99 1013.98 1013.97 1014.19 1014.02 1014.01 1014.00 1014.08 1014.20 1014.07 1013.90 1013.68 1013.72
1014.63 1014.37 1014.12 1013.80 1013.45 1013.26 1013.02 1012.93 1013.01 1012.98 1012.95 1012.93 1012.92 1013.03 1013.16 1013.34 1013.51 1013.66 1013.75 1013.87 1014.03 1014.15 1014.25 1014.36 1014.10 1013.99 1013.76 1013.86 1013.91 1013.91 1013.95 1013.94 1013.84 1014.33 1014.08 1013.86 1013.88 1013.81 1013.89 1013.89 1013.82 1013.50 1013.52
1014.52 1014.11 1013.76 1013.48 1013.08 1012.88 1012.61 1012.39 1012.26 1012.16 1012.17 1012.09 1012.16 1012.27 1012.32 1012.39 1012.61 1012.89 1013.07 1013.12 1013.20 1013.35 1013.47 1013.62 1013.61 1013.55 1013.52 1013.46 1013.57 1013.58 1013.64 1013.57 1013.57 1013.96 1014.06 1013.62 1013.80 1013.52 1013.59 1013.77 1013.71 1013.49 1013.79
1014.46 1014.03 1013.57 1013.21 1012.83 1012.52 1012.28 1012.06 1011.89 1011.71 1011.58 1011.54 1011.61 1011.66 1011.71 1011.72 1012.00 1012.19 1012.32 1012.38 1012.42 1012.46 1012.55 1012.69 1012.88 1012.99 1013.15 1013.28 1013.39 1013.36 1013.30 1013.56 1013.81 1013.89 1014.02 1013.66 1013.62 1013.45 1013.54 1013.52 1013.54 1013.46 1013.85
1014.30 1013.86 1013.54 1013.13 1012.69 1012.23 1011.97 1011.72 1011.49 1011.24 1011.06 1010.92 1011.01 1011.13 1011.23 1011.19 1011.33 1011.50 1011.81 1011.73 1011.82 1011.65 1012.10 1012.21 1012.34 1012.44 1012.54 1012.79 1013.21 1013.47 1013.55 1013.70 1013.50 1013.46 1013.79 1013.75 1013.61 1013.54 1013.55 1013.45 1013.48 1013.39 1013.67
1014.19 1013.82 1013.29 1012.89 1012.50 1012.03 1011.67 1011.39 1011.16 1010.95 1010.77 1010.67 1010.57 1010.63 1010.69 1010.60 1010.61 1010.79 1010.77 1010.87 1010.90 1010.76 1011.46 1011.69 1011.90 1011.98 1012.01 1012.17 1012.59 1013.02 1013.17 1013.34 1013.48 1013.46 1013.60 1013.85 1013.85 1014.00 1013.74 1013.67 1013.63 1013.72 1013.84
Wind_Speed
5 5 5 5 5 5 6 6 6 7 7 8 7 8 8 7 7 5 5 6 10 11 11 12 13 14 14 15 16 16 15 18 20 22 23 22 22 23 23 23 22 20 19
4 5 5 5 5 6 6 6 6 6 6 6 7 7 8 7 7 6 4 5 7 8 9 10 12 14 16 17 18 18 16 16 18 21 23 24 24 24 24 24 24 23 22
5 6 5 5 5 6 7 6 6 5 5 5 7 6 6 7 6 6 5 4 4 5 7 10 11 13 14 15 16 17 18 17 17 16 20 23 24 25 25 26 25 26 24
5 5 5 4 5 6 6 6 6 6 5 5 6 6 5 5 6 5 4 3 3 3 5 8 11 12 14 14 14 15 16 17 16 16 17 17 22 25 25 25 27 31 26
6 5 4 4 6 5 5 6 7 5 6 6 7 7 5 4 4 2 3 4 4 4 4 7 9 9 11 12 13 14 15 16 18 19 19 20 19 20 24 25 26 27 26
6 6 4 5 6 5 6 7 9 7 7 5 9 7 5 3 1 2 4 3 5 5 6 6 6 6 10 12 12 13 13 15 17 19 22 22 22 21 23 24 25 25 25
5 5 4 5 5 4 7 8 5 8 6 8 5 6 2 3 4 3 3 4 6 6 7 6 5 6 6 10 12 15 18 19 18 21 25 24 24 24 23 24 23 25 23
4 4 5 5 7 5 6 6 7 5 5 3 4 3 4 1 4 3 2 4 8 6 7 7 7 8 7 6 10 16 20 21 23 24 27 26 25 23 25 23 23 23 24
4 4 4 5 6 5 5 4 5 6 5 3 3 2 3 3 8 1 4 6 7 7 6 7 7 7 7 6 8 11 20 20 23 25 28 21 21 20 22 24 23 23 21
4 3 4 4 5 4 6 4 5 4 5 4 2 2 1 2 3 5 2 6 4 6 4 4 5 6 7 6 9 12 19 21 23 25 25 28 13 17 18 22 20 21 18
5 4 4 4 4 3 4 7 5 5 4 4 3 1 1 2 4 4 9 7 4 4 3 2 3 4 5 6 6 10 19 20 22 24 24 25 27 26 30 20 13 13 10
4 5 5 4 4 4 5 5 5 6 5 5 5 4 2 3 4 3 4 8 7 3 1 1 1 2 2 4 6 12 17 19 20 21 22 23 26 27 33 15 20 26 21
4 5 5 5 4 4 6 6 5 5 6 5 6 4 3 2 4 5 6 6 6 6 2 3 2 1 0 2 4 10 12 16 16 19 21 21 23 24 22 21 23 21 19
7 6 6 6 7 6 6 6 5 4 6 5 6 4 4 4 4 4 3 5 6 5 7 4 2 1 1 1 3 6 6 14 13 15 17 19 20 19 18 19 20 18 17
6 8 8 7 8 7 7 7 5 6 5 5 4 4 5 5 4 4 4 4 4 6 7 2 2 3 2 2 4 4 4 9 11 12 14 16 17 18 17 17 16 16 15
8 7 8 8 8 8 8 7 6 7 7 5 5 6 6 5 4 3 4 4 5 6 5 3 4 3 2 2 2 3 4 5 10 11 12 13 13 13 14 14 13 13 13
7 7 8 9 9 10 9 8 8 8 9 8 7 7 8 6 4 4 3 4 5 4 6 6 2 3 4 4 4 3 2 3 4 10 10 10 9 10 10 11 11 12 11
6 7 8 9 10 10 9 10 10 9 10 9 8 7 9 5 7 5 4 6 5 4 4 9 6 4 4 2 3 4 2 2 3 7 8 8 7 6 9 10 10 11 10
8 8 7 9 10 11 10 10 10 10 10 10 9 9 9 7 8 6 5 5 4 4 5 5 6 3 3 1 2 2 2 1 1 3 5 5 4 7 7 8 8 8 8
8 8 8 9 10 10 10 10 10 11 11 10 10 10 10 10 10 8 6 7 5 5 5 6 6 5 4 2 2 3 3 1 1 1 3 4 5 7 6 4 5 5 4
7 8 9 9 9 8 7 10 10 12 12 12 10 10 10 11 12 11 5 7 6 5 4 5 5 3 3 3 4 0 3 2 2 1 1 1 1 1 2 3 2 1 3
9 8 8 9 9 6 11 15 13 9 10 10 10 10 10 11 13 16 16 14 9 7 8 4 4 5 6 3 2 3 2 2 2 1 1 2 2 3 1 1 3 5 8
9 9 8 8 9 8 12 14 14 10 9 10 9 8 8 7 12 10 14 16 16 16 14 5 7 6 4 4 3 4 5 4 3 2 2 2 2 3 3 2 4 9 5
8 8 8 7 8 7 11 12 12 10 10 10 10 10 10 10 9 10 10 10 10 10 10 8 9 8 7 4 6 2 3 2 1 2 2 3 1 2 1 2 4 4 5
7 7 6 8 8 8 9 10 8 6 8 10 8 9 9 10 11 16 9 11 11 11 10 15 13 13 12 11 8 4 3 3 3 3 4 2 1 2 1 2 2 8 4
8 6 8 6 8 8 9 9 7 4 7 6 6 6 11 12 13 16 12 11 12 11 9 8 9 10 9 8 12 8 3 4 2 2 3 3 2 1 2 1 2 3 3
Wind_Direction
2 352 351 343 340 338 334 329 325 323 319 314 304 293 290 287 277 269 265 263 282 291 298 304 306 305 303 299 296 294 281 272 261 251 246 240 237 237 234 234 235 237 237
0 356 345 336 334 333 326 322 321 320 316 308 304 298 288 285 286 282 280 289 291 302 308 304 303 303 301 299 294 289 286 287 268 260 256 250 241 237 236 236 232 233 232
359 351 343 335 341 335 328 325 322 315 307 310 302 297 288 282 280 288 300 299 302 299 313 317 319 318 315 310 307 303 300 295 292 283 269 259 250 245 240 235 234 232 229
352 347 345 347 341 338 340 340 331 320 313 314 313 305 295 297 304 300 289 287 310 332 339 343 341 334 329 321 315 311 305 302 300 298 295 278 262 254 250 246 242 238 227
358 346 345 346 345 341 351 350 339 330 315 324 322 310 310 306 298 306 349 2 10 14 2 353 354 350 342 331 325 323 323 318 312 304 298 288 277 267 254 247 243 241 238
359 346 335 341 341 340 350 354 344 337 317 329 314 309 330 347 37 61 30 45 21 30 9 5 356 354 354 349 350 347 340 329 320 304 292 287 277 271 261 255 247 247 238
352 353 343 332 341 333 346 345 316 342 346 345 323 337 19 34 96 24 73 42 27 17 10 8 5 360 352 359 0 360 352 341 327 313 300 283 274 269 257 254 252 247 238
338 335 341 332 338 333 343 346 330 328 334 357 350 308 353 60 359 48 33 7 11 8 15 14 8 16 8 1 11 357 352 343 335 336 322 273 271 265 260 252 249 240 236
308 317 317 317 321 330 325 324 315 336 321 318 47 353 339 341 335 11 1 358 6 7 18 9 14 14 6 1 3 348 348 343 343 349 352 326 262 259 257 253 247 239 228
287 288 296 303 314 313 315 323 311 311 312 317 317 107 128 259 326 310 312 319 346 9 21 27 3 7 360 356 357 352 352 356 355 360 360 5 316 257 266 257 248 242 230
268 271 268 283 284 294 299 300 301 302 295 295 299 318 283 243 244 256 310 317 315 357 351 44 359 355 1 1 2 358 356 3 359 3 11 8 20 28 352 257 239 218 198
283 267 259 249 266 277 291 294 293 293 285 286 279 257 241 280 286 268 282 307 312 318 315 198 84 2 5 1 9 5 358 7 5 5 14 20 30 38 21 92 90 85 89
271 265 244 245 253 253 275 281 277 280 285 285 289 274 264 277 300 294 286 297 302 312 235 205 184 198 274 46 10 15 0 6 14 16 17 21 36 45 48 51 66 71 77
270 267 251 238 248 243 253 265 268 272 283 280 282 273 297 296 302 287 292 308 303 288 292 293 195 207 310 33 38 27 13 359 19 32 31 28 34 48 50 52 59 65 72
267 263 251 246 244 242 241 251 252 256 265 275 276 307 293 283 286 281 275 275 286 299 307 322 281 208 309 316 25 24 20 5 17 36 44 45 32 36 47 58 64 66 67
268 265 260 250 251 248 244 245 249 250 254 258 259 264 268 273 278 272 266 263 257 271 271 304 300 299 299 302 21 30 25 6 18 33 43 50 54 49 46 53 57 65 73
267 261 256 251 246 244 237 237 245 255 252 255 249 250 258 253 260 264 259 259 256 249 272 296 300 315 300 307 321 342 36 42 38 33 38 46 53 70 74 75 74 67 65
277 267 263 255 250 244 240 236 240 241 243 247 251 252 259 256 255 254 249 249 246 238 248 279 287 280 255 297 296 304 355 63 47 25 26 39 45 70 86 88 83 72 72
284 279 261 257 255 248 240 234 234 242 241 242 242 241 249 247 255 252 248 249 243 239 228 239 265 262 265 266 273 244 268 295 118 63 57 45 67 75 72 81 85 76 70
292 290 281 269 256 252 244 241 235 238 241 240 238 237 240 235 241 245 243 248 243 241 237 245 261 269 261 237 266 274 261 192 261 15 52 54 62 73 78 61 42 30 73
300 298 296 286 269 254 249 241 237 239 241 242 236 233 232 230 230 233 229 237 230 238 238 240 251 254 259 258 253 210 277 303 239 237 265 194 206 175 30 15 337 321 131
306 303 299 293 287 265 249 244 239 239 238 240 241 237 233 229 235 235 232 229 214 215 230 227 233 243 252 249 216 229 241 255 259 151 248 210 219 211 221 300 304 158 131
312 306 303 299 291 285 272 264 250 242 238 238 237 234 237 223 220 222 235 237 233 228 229 226 243 236 251 223 202 208 216 209 223 166 224 239 194 220 190 240 264 172 137
311 310 310 310 304 298 289 283 270 256 248 247 242 243 245 248 223 213 220 229 228 228 222 220 225 248 242 236 224 256 225 204 274 238 233 267 165 240 223 239 246 189 124
312 305 302 304 301 300 299 292 282 258 255 255 245 247 246 254 236 224 218 231 235 237 227 234 238 242 246 241 215 179 204 196 228 217 192 256 204 278 265 249 244 171 174
301 306 309 303 301 304 311 303 286 264 271 276 272 261 252 253 254 237 225 224 237 240 214 220 233 234 227 214 200 211 198 211 219 259 171 222 186 261 252 207 248 231 244